www.pogodaiklimat.ru

Погода и климат >> Архив погоды >> Молдова >> Бравичи


ПОГОДА в Бравичах

  • Прогноз погоды в Бравичах
  • Монитор погоды в Бравичах

АРХИВ ПОГОДЫ в Бравичах

Время (UTC), дата Ветер
(напр.,м/с)
 
Видим.   Явления Облачность Т
(С)
Тd
(С)
f
(%)
Тe
(С)
Тes
(С)
Комфортность P
(гПа)
Po
(гПа)
Тmin
(С)
Tmax
(С)
R
(мм)
R24
(мм)
S
(см)
18 10.09 штиль 0 20 км 4/0
[Cc]
+15.8 +8.3 61 +16 +16 1021.3 1011.8 +28.1
21 10.09 штиль 0 20 км 3/0
[Cc]
+12.1 +8.9 81 +12 +12 1022.5 1012.8
00 11.09 штиль 0 20 км 3/0
[Ac trans]
+9.5 +7.8 89 +9 +9 1023.7 1013.9
03 11.09 штиль 0 10 км 3/0
[Ac lent Ci fib]
+7.7 +6.6 93 +7 +7 1024.4 1014.6
06 11.09 штиль 0 20 км 3/0
[Ci fib]
+13.1 +10.3 83 +13 +16 1025.5 1015.8 +7.4
09 11.09 ЮВ 2 20 км 8/0
[Ci sp]
+26.4 +3.6 23 +25 +34 комфорт 1024.8 1015.6
12 11.09 ЮВ 1 20 км 8/0
[Ci]
+28.4 +1.0 17 +26 +35 жарко 1024.1 1014.9
15 11.09 штиль 0 20 км 6/0
[Ci sp]
+26.6 +3.8 23 +25 +27 комфорт 1023.6 1014.4
18 11.09 штиль 0 20 км 3/0
[Ci fib]
+15.8 +7.8 59 +16 +16 1024.7 1015.1 +29.4
21 11.09 штиль 0 20 км 3/0
[Ci fib]
+11.7 +8.4 80 +11 +11 1025.3 1015.6
00 12.09 штиль 0 20 км ясно +9.3 +7.6 89 +8 +8 1026.0 1016.2
03 12.09 штиль 0 10 км 3/0
[Ci fib]
+7.7 +6.6 93 +7 +7 1026.5 1016.6
06 12.09 штиль 0 20 км 6/0
[Ci fib]
+13.8 +9.0 73 +13 +17 1027.2 1017.5 +7.2
09 12.09 В 2 20 км 8/0
[Ci]
+26.2 +2.8 22 +25 +33 комфорт 1026.6 1017.3
12 12.09 СВ 2 20 км 8/0
[Ci fib]
+28.4 +1.0 17 +26 +33 жарко 1025.3 1016.1
15 12.09 штиль 0 20 км 6/0
[Ci fib]
+27.5 -0.5 16 +25 +26 комфорт 1024.5 1015.3
18 12.09 штиль 0 20 км 3/0
[Ci fib]
+14.9 +6.5 57 +15 +15 1025.8 1016.2 +29.1
21 12.09 штиль 0 20 км 3/0
[Ci fib]
+11.4 +6.9 74 +11 +11 1026.2 1016.5
00 13.09 штиль 0 20 км 3/0
[Ci fib]
+9.0 +6.8 86 +8 +8 1026.2 1016.4
03 13.09 штиль 0 20 км 3/0
[Ci fib]
+7.3 +5.9 91 +6 +6 1026.4 1016.5
06 13.09 штиль 0 20 км 4/0
[Ci fib]
+12.4 +8.9 79 +12 +15 1027.2 1017.5 +7.1
09 13.09 З 1 20 км 1/0
[Ac lent]
+27.1 +4.8 24 +26 +37 жарко 1025.7 1016.5
12 13.09 СЗ 2 20 км 1/1 1000 м
[Cu med, cong]
+29.4 +2.6 18 +27 +35 жарко 1023.9 1014.8
15 13.09 СЗ 1 20 км 1/1 1000 м
[Cu med, cong]
+27.5 +3.9 22 +26 +27 жарко 1022.8 1013.6
18 13.09 штиль 0 20 км 3/0
[Ac trans]
+17.2 +9.4 60 +17 +17 1023.7 1014.2 +29.9
21 13.09 штиль 0 20 км 3/0
[Ac trans]
+14.0 +10.6 80 +14 +14 1024.1 1014.5
00 14.09 штиль 0 20 км 8/0
[Ac trans]
+14.0 +11.5 85 +14 +14 1024.3 1014.7
03 14.09 штиль 0 20 км 8/0
[Ac trans]
+13.7 +11.6 87 +13 +13 1024.1 1014.5
06 14.09 З 1 10 км 3/0
[Ac trans Ci fib]
+19.8 +10.5 55 +22 +25 комфорт 1024.6 1015.2 +13.1
09 14.09 СЗ 2 20 км 8/4 1000 м
[Cb cap Ac trans Cc]
+23.2 +11.0 46 +25 +29 комфорт 1024.3 1015.0
12 14.09 СЗ 5
{12}
20 км 9/6 1000 м
[Cb cap Ac trans]
+21.6 +11.9 54 +24 +25 комфорт 1024.8 1015.4
15 14.09 СЗ 3 20 км 4/0
[Ac lent]
+20.4 +5.2 37 +21 +22 комфорт 1025.1 1015.7
18 14.09 штиль 0 20 км ясно +12.4 +7.1 70 +12 +12 1026.3 1016.6 +24.4
21 14.09 штиль 0 20 км ясно +9.8 +5.6 75 +9 +9 1028.1 1018.3
00 15.09 штиль 0 20 км ясно +7.1 +5.2 88 +6 +6 1028.4 1018.5
03 15.09 штиль 0 20 км ясно +5.2 +4.0 92 +4 +4 1028.3 1018.3
06 15.09 штиль 0 20 км 3/0
[Ci fib]
+10.1 +7.0 81 +9 +13 1028.5 1018.7 +4.8
09 15.09 штиль 0 20 км 3/1 1000 м
[Cu med, cong Ci fib]
+20.4 +2.3 30 +20 +32 1026.9 1017.4
12 15.09 СЗ 2 20 км 3/3 1000 м
[Cu med, cong]
+22.9 +1.3 24 +22 +28 комфорт 1024.0 1014.7
15 15.09 ЮЗ 1 20 км 1/0
[Ci fib]
+21.8 +3.5 30 +22 +23 комфорт 1022.0 1012.6
18 15.09 штиль 0 20 км 1/0
[Ci fib]
+12.4 +6.2 66 +12 +12 1021.3 1011.6 +24.1
21 15.09 штиль 0 20 км 3/0
[Ac lent Ci fib]
+10.3 +6.6 78 +10 +10 1019.4 1009.7
00 16.09 штиль 0 20 км ясно +10.8 +6.0 72 +10 +10 1018.4 1008.7
03 16.09 штиль 0 10 км 3/0
[Ac lent]
+7.5 +5.6 88 +7 +7 1017.7 1007.9
06 16.09 штиль 0 20 км 3/0
[Ci fib]
+15.1 +7.6 61 +15 +18 1017.5 1008.0 +7.2
09 16.09 СЗ 3 20 км 1/0
[Cc]
+24.5 +3.8 26 +24 +32 комфорт 1016.2 1007.0
12 16.09 З 3 20 км 1/0
[Cc]
+27.4 +3.8 22 +26 +33 жарко 1013.7 1004.6
15 16.09 З 2 20 км ясно +25.6 +2.9 23 +24 +25 комфорт 1012.2 1003.0
18 16.09 штиль 0 20 км ясно +15.7 +5.9 52 +16 +16 1012.4 1002.9 +27.6
21 16.09 Ю 1 20 км 8/0
[Ci fib]
+11.7 +6.6 71 +12 +12 1012.7 1003.1
00 17.09 штиль 0 20 км 9/0
[Ac trans]
+12.2 +7.7 74 +12 +12 1011.7 1002.1
03 17.09 штиль 0 20 км в посл. час ливневой дождь 9/8 1000 м
[Cb cap Ac trans]
+14.7 +7.7 63 +15 +15 1012.8 1003.3
06 17.09 штиль 0 10 км слаб. ливневой дождь 10/10 600 м
[Cb cap]
+13.4 +11.6 89 +13 +13 1013.9 1004.4 +11.5 0.3
09 17.09 штиль 0 20 км {ливн. осадки} 9/6 600 м
[Cb cap Ac trans]
+15.8 +11.0 73 +16 +18 1014.1 1004.5
12 17.09 З 2 20 км {ливн. осадки} 8/0
[Ac trans]
+18.4 +10.2 59 +19 +23 1013.2 1003.7
15 17.09 З 1 20 км 9/0
[Ac trans]
+18.1 +8.7 54 +19 +20 1011.1 1001.7

 

Местоположение метеостанции Бравичи (Молдова): широта 47.37 долгота 28.43 высота над уровнем моря 78 м.

В архиве по умолчанию представлена погода в Бравичах за последнюю неделю. Архивные данные за месяц целиком и за предыдущие месяцы, начиная с января 2011 года, Вы можете получить, выбрав интересующий диапазон дат из раскрывающегося списка и нажав кнопку "Ввод!".


*Определитесь, кто Вы:
робот инопланетянин человек

Внимание! Время в таблицах - всемирное. Для получения местного времени необходимо прибавить поправку, которая равна 2 ч.

Смотрите также архив погоды в соседних городах и на ближайших метеорологических станциях:

Погода в Корнестах (Молдова) (27 км)
Погода в Кодрах (Молдова) (31 км)
Погода в Дубоссарах (Молдова) (44 км)
Погода в Кишиневе (Молдова) (57 км)
Погода в Балцате (Молдова) (58 км)
Погода в Бельцах (Молдова) (58 км)
Погода в Фалештах (Молдова) (60 км)
Погода в Рыбнице (Молдова) (63 км)
Погода в Яссы (Румыния) (64 км)
Погода в Барнрва (Румыния) (76 км)

Пояснения к столбцам:

Ветер - указаны скорость ветра в м/с - средняя за 10 мин, порывы в срок и между сроками (в фигурных скобках) и направление, откуда дует ветер: С - северный, СВ - северо-восточный, В - восточный, ЮВ - юго-восточный, Ю - южный, ЮЗ - юго-западный, З - западный, СЗ - северо-западный.
Видимость - горизонтальная дальность видимости в метрах или километрах. При видимости от 1 до 10 км при отсутствии осадков обычно наблюдается дымка, при ухудшении видимости до 1 км и менее - туман. В сухую погоду видимость может ухудшаться дымом, пылью или мглою.
Явления - указаны атмосферные явления, наблюдавшиеся в срок или в последний час перед сроком; фигурными скобками обозначены явления, наблюдавшиеся между сроками (за 1-3 часа до срока); квадратными скобками обозначены град или гололедные отложения с указанием их диаметра в мм.
Облачность - указаны через наклонную черту общая и нижняя облачность в баллах и высота нижней границы облаков в метрах; квадратными скобками обозначены формы облаков: Ci - перистые, Cs - перисто-слоистые, Cc - перисто-кучевые, Ac - высококучевые, As - высокослоистые, Sc - слоисто-кучевые, Ns - слоисто-дождевые, Cu - кучевые, Cb - кучево-дождевые. Подробнее классификацию облаков см. в Атласе облаков (PDF).
T - Температура воздуха - температура, измеренная на высоте 2 м над землей.
Td - Температура точки росы - температура, при понижении до которой содержащийся в воздухе водяной пар достигнет насыщения.
f - Относительная влажность воздуха - влажноcть воздуха, измеренная на высоте 2 м над землей.
Te - Эффективная температура - температура, которую ощущает одетый по сезону человек в тени. Характеристика душности погоды. При расчете учитывается влияние влажности воздуха и скорости ветра на теплоощущения человека.
Tes - Эффективная температура на солнце - температура, которую ощущает человек, с поправкой на солнечный нагрев. Характеристика знойности погоды. Зависит от высоты солнца над горизонтом, облачности и скорости ветра. Ночью, в пасмурную погоду, а также при ветре 12 м/с и более поправка равна нулю.
P - Атмосферное давление - приведенное к уровню моря атмосферное давление.
Po - Атмосферное давление - измеренное на уровне метеостанции атмосферное давление.
Tmin - Минимальная температура - минимум температуры воздуха на высоте 2 м над землей.
Tmax - Максимальная температура - максимум температуры воздуха на высоте 2 м над землей.
R - Количество осадков - Количество выпавших осадков за период времени, мм. При наведении курсора мыши на число - период времени, за который выпало указанное количество осадков.
R24 - Количество осадков - Количество выпавших осадков за 24 часа, мм.
S - Снежный покров - Высота снежного покрова, см. При наведении курсора мыши на число - состояние снежного покрова и степень покрытия местности в баллах.